This is the latest recevied weather packets stored in our database for station/object DC8RAI-12. If no packets are shown the sender has not sent any weather packets the latest 10 day(s).
| Time | Temp. | Humidity | Pressure | Rain* | Wind** | Luminosity | Snow |
|---|---|---|---|---|---|---|---|
| 1777553091 | 17.22° C | 20% | 1025.4 hPa | - | - | - | - |
| 1777552191 | 17.78° C | 19% | 1025.5 hPa | - | - | - | - |
| 1777551291 | 17.22° C | 22% | 1025.7 hPa | - | - | - | - |
| 1777550391 | 17.78° C | 19% | 1025.7 hPa | - | - | - | - |
| 1777549490 | 16.11° C | 18% | 1025.7 hPa | - | - | - | - |
| 1777548590 | 18.89° C | 22% | 1025.8 hPa | - | - | - | - |
| 1777547690 | 17.78° C | 24% | 1026 hPa | - | - | - | - |
| 1777546790 | 16.67° C | 22% | 1026 hPa | - | - | - | - |
| 1777545890 | 17.22° C | 30% | 1026.1 hPa | - | - | - | - |
| 1777544990 | 16.11° C | 26% | 1026.4 hPa | - | - | - | - |
| 1777544090 | 14.44° C | 30% | 1026.5 hPa | - | - | - | - |
| 1777543192 | 13.89° C | 29% | 1026.4 hPa | - | - | - | - |
| 1777542290 | 13.89° C | 31% | 1026.6 hPa | - | - | - | - |
| 1777541390 | 12.22° C | 35% | 1026.7 hPa | - | - | - | - |
| 1777540489 | 11.67° C | 36% | 1026.8 hPa | - | - | - | - |
| 1777539589 | 11.11° C | 36% | 1026.8 hPa | - | - | - | - |
| 1777538689 | 11.11° C | 37% | 1026.9 hPa | - | - | - | - |
| 1777537789 | 10° C | 37% | 1026.9 hPa | - | - | - | - |
| 1777536889 | 9.44° C | 37% | 1027 hPa | - | - | - | - |
| 1777535989 | 8.89° C | 38% | 1027.1 hPa | - | - | - | - |
| 1777535089 | 7.78° C | 39% | 1027.2 hPa | - | - | - | - |
| 1777534189 | 7.22° C | 40% | 1027 hPa | - | - | - | - |
| 1777533288 | 6.67° C | 40% | 1027.1 hPa | - | - | - | - |
| 1777532388 | 7.22° C | 41% | 1027 hPa | - | - | - | - |
| 1777531494 | 6.67° C | 42% | 1027 hPa | - | - | - | - |
* Rain since midnight (hover to see other rain measurements)
** Current wind speed in m/s (hover to see current wind gust speed)